Rome, NY

6:31 PM EST on February 05, 2016 (GMT -0500)
Griffiss

Weather History for KRME - February, 2014

Change the Weather History Date:

Friday, February 7, 2014

  Actual Average Record
Temperature  
Mean Temperature 8 °F -  
Max Temperature 18 °F 28 °F 48 °F (2009)
Min Temperature -2 °F 11 °F -16 °F (1993)
Degree Days  
Heating Degree Days 57    
Moisture  
Dew Point 2 °F    
Average Humidity 67    
Maximum Humidity 87    
Minimum Humidity 45    
Precipitation  
Precipitation 0.00 in - - ()
Sea Level Pressure  
Sea Level Pressure 30.26 in    
Wind  
Wind Speed 5 mph (WNW)    
Max Wind Speed 14 mph    
Max Gust Speed 23 mph    
Visibility 9 miles    
Events Snow    
Averages and records for this station are not official NWS values.
T = Trace of Precipitation, MM = Missing Value Source: NWS Daily Summary

Daily Weather History Graph

Daily Weather History Graph

Search for Another Location

Airport or City:

Trip Planner

Search our weather history database for the weather conditions in past years. The results will help you decide how hot, cold, wet, or windy it might be!

Date:

Astronomy

Feb. 07, 2014 Rise Set
Actual Time 7:10 AM EST 5:21 PM EST
Civil Twilight 6:40 AM EST 5:51 PM EST
Nautical Twilight 6:06 AM EST 6:25 PM EST
Astronomical Twilight 5:33 AM EST 6:58 PM EST
Moon 11:29 AM EST (2/7) 1:25 AM EST (2/7)
Length of Visible Light 11h 11m
Length of Day
10h 11m
First Quarter, 59% of the Moon is Illuminated
Feb 7
First Quarter
Feb 14
Full
Feb 22
Last Quarter
Mar 1
New
Mar 8
First Quarter

Hourly Weather History & Observations

Time (EST) Temp. Windchill Dew Point Humidity Pressure Visibility Wind Dir Wind Speed Gust Speed Precip Events Conditions
12:53 AM 12.9 °F - 7.0 °F 77% 30.24 in 10.0 mi Calm Calm - N/A   Overcast
1:41 AM 12.9 °F - 8.1 °F 81% 30.20 in 3.0 mi Calm Calm - 0.00 in Snow Light Snow
1:53 AM 12.0 °F 5.9 °F 8.1 °F 84% 30.23 in 2.5 mi ESE 3.5 mph - 0.00 in Snow Light Snow
2:07 AM 12.0 °F 5.9 °F 8.1 °F 84% 30.20 in 6.0 mi SE 3.5 mph - 0.00 in Snow Light Snow
2:53 AM 7.0 °F 0.1 °F 3.9 °F 87% 30.21 in 10.0 mi NNE 3.5 mph - 0.00 in   Partly Cloudy
3:53 AM 3.0 °F -4.4 °F -0.0 °F 87% 30.22 in 10.0 mi North 3.5 mph - N/A   Scattered Clouds
4:53 AM 3.9 °F - -0.0 °F 84% 30.24 in 9.0 mi Calm Calm - 0.00 in Snow Light Snow
5:53 AM 14.0 °F 0.5 °F 5.0 °F 67% 30.24 in 10.0 mi West 11.5 mph 23.0 mph 0.00 in   Clear
6:53 AM 12.0 °F -1.3 °F 1.9 °F 64% 30.27 in 10.0 mi West 10.4 mph - N/A   Clear
7:53 AM 9.0 °F -0.9 °F 1.0 °F 70% 30.29 in 10.0 mi NNW 5.8 mph - N/A   Clear
8:53 AM 12.0 °F -2.0 °F 1.0 °F 61% 30.30 in 10.0 mi West 11.5 mph - N/A   Overcast
9:53 AM 12.9 °F -2.2 °F 1.9 °F 62% 30.31 in 10.0 mi WSW 13.8 mph - N/A   Overcast
10:53 AM 14.0 °F 2.0 °F 3.0 °F 62% 30.31 in 10.0 mi West 9.2 mph - N/A   Clear
11:53 AM 16.0 °F 2.9 °F 3.0 °F 57% 30.28 in 10.0 mi West 11.5 mph - N/A   Clear
12:53 PM 17.1 °F - 3.0 °F 54% 30.25 in 10.0 mi North - - N/A   Clear
1:53 PM 17.1 °F 5.0 °F 3.0 °F 54% 30.23 in 10.0 mi West 10.4 mph - N/A   Mostly Cloudy
2:53 PM 18.0 °F 6.1 °F 1.9 °F 50% 30.24 in 10.0 mi West 10.4 mph - N/A   Partly Cloudy
3:53 PM 18.0 °F 6.1 °F 1.0 °F 48% 30.26 in 10.0 mi West 10.4 mph - N/A   Overcast
4:53 PM 18.0 °F 6.9 °F -0.0 °F 45% 30.25 in 10.0 mi West 9.2 mph - N/A   Overcast
5:53 PM 16.0 °F 6.3 °F 1.0 °F 52% 30.26 in 10.0 mi WNW 6.9 mph - N/A   Overcast
6:53 PM 15.1 °F 7.7 °F -0.9 °F 49% 30.27 in 10.0 mi NNW 4.6 mph - N/A   Mostly Cloudy
7:53 PM 10.0 °F - -0.0 °F 64% 30.29 in 10.0 mi Calm Calm - N/A   Partly Cloudy
8:53 PM 3.9 °F - -2.0 °F 76% 30.29 in 10.0 mi Calm Calm - N/A   Clear
9:53 PM -2.0 °F - -7.1 °F 79% 30.31 in 10.0 mi Calm Calm - N/A   Clear
10:53 PM -0.0 °F -13.0 °F -7.1 °F 72% 30.31 in 10.0 mi WNW 6.9 mph - N/A   Clear
11:53 PM 3.0 °F -9.3 °F -5.1 °F 69% 30.32 in 10.0 mi NW 6.9 mph - N/A   Clear